Date,TemperatureHighF,TemperatureAvgF,TemperatureLowF,DewpointHighF,DewpointAvgF,DewpointLowF,HumidityHigh,HumidityAvg,HumidityLow,PressureMaxIn,PressureMinIn,WindSpeedMaxMPH,WindSpeedAvgMPH,GustSpeedMaxMPH,PrecipitationSumIn
2013-3-1,56.7,49.8,45.7,45.9,43.1,40.9,92,79,63,29.83,29.69,17,5,17,0.00
2013-3-2,47.7,47.7,47.7,43.4,43.4,43.4,85,85,85,29.83,29.83,11,11,11,0.00
2013-3-3,47.7,47.7,47.7,43.4,43.4,43.4,85,85,85,29.83,29.83,11,11,11,0.00
2013-3-4,59.9,51.2,47.7,51.8,46.6,43.4,90,84,73,29.88,29.75,24,12,24,0.02
2013-3-5,68.4,58.9,54.9,53.6,51.2,47.8,90,77,52,29.76,29.42,24,12,24,0.06
2013-3-6,61.0,57.1,54.3,54.2,52.7,50.4,91,85,78,29.70,29.39,41,16,41,0.09
2013-3-7,68.2,59.5,55.0,55.4,52.4,49.6,90,78,55,29.86,29.69,24,9,24,0.00
2013-3-8,66.4,59.7,56.1,54.2,52.5,50.1,92,78,65,29.91,29.73,26,9,26,0.00
2013-3-9,63.9,58.5,55.0,53.3,51.6,48.2,91,79,63,29.90,29.82,21,8,21,0.00
2013-3-10,56.7,56.7,56.7,52.5,52.5,52.5,86,86,86,29.87,29.87,4,4,8,0.00
2013-3-11,60.6,56.7,55.8,52.5,49.5,47.3,86,77,67,29.90,29.87,16,10,28,0.00
2013-3-12,59.0,55.9,54.0,48.8,45.6,42.7,81,68,58,29.89,29.75,18,9,30,0.00
2013-3-13,56.1,50.2,42.6,49.3,42.3,35.6,84,74,54,29.86,29.61,20,7,36,0.07
2013-3-14,54.0,49.2,44.6,35.8,32.5,23.9,70,53,33,30.06,29.86,20,8,34,0.01
2013-3-15,57.7,50.4,43.7,37.1,32.7,28.3,66,51,36,30.31,30.05,17,6,25,0.00
2013-3-16,58.5,49.3,41.5,42.6,38.1,31.9,77,66,47,30.30,30.08,13,3,17,0.00
2013-3-17,66.6,54.8,47.8,52.3,45.7,39.7,88,72,41,30.09,29.74,14,4,21,0.06
2013-3-18,63.0,56.6,49.3,52.7,47.7,39.2,91,73,51,30.02,29.70,16,5,22,0.08
2013-3-19,66.6,55.9,48.6,51.6,48.8,45.6,93,78,55,30.02,29.83,11,2,14,0.01
2013-3-20,62.4,55.5,49.6,53.8,47.4,40.8,91,75,48,30.36,29.78,13,3,20,0.00
2013-3-21,60.8,55.0,49.5,52.0,48.3,42.9,87,78,69,30.37,30.20,10,3,14,0.00
2013-3-22,69.6,57.1,47.8,53.5,49.7,45.2,93,78,49,30.20,29.97,9,2,13,0.01
2013-3-23,64.8,57.6,54.9,53.0,50.3,46.2,90,77,60,30.00,29.83,10,3,14,0.00
2013-3-24,63.5,56.9,53.6,52.0,50.1,48.6,88,78,63,29.87,29.75,12,3,23,0.02
2013-3-25,63.0,58.1,51.8,50.7,47.0,38.7,83,67,43,30.01,29.86,18,6,24,0.00
2013-3-26,64.8,59.5,56.5,53.2,51.2,48.4,88,74,65,29.94,29.83,21,5,30,0.04
2013-3-27,66.7,59.5,55.6,54.3,52.8,51.1,89,79,64,29.95,29.81,11,3,16,0.00
2013-3-28,64.9,59.6,55.9,54.9,52.5,49.9,89,78,59,30.11,29.90,13,4,18,0.00
2013-3-29,66.2,59.6,57.2,53.6,51.8,50.2,86,76,63,30.12,29.96,17,6,22,0.00
2013-3-30,67.5,61.5,57.7,52.8,48.4,39.5,81,63,37,30.07,29.88,20,7,30,0.00
2013-3-31,64.0,58.8,56.3,50.0,45.5,41.4,69,61,51,30.07,30.00,11,2,16,0.00